Time,TemperatureF,DewpointF,PressureIn,WindDirection,WindDirectionDegrees,WindSpeedMPH,WindSpeedGustMPH,Humidity,HourlyPrecipIn,Conditions,Clouds,dailyrainin,SoftwareType,DateUTC
2013-07-30 00:14:00,74.6,64.0,30.02,SSW,196,1.0,-999.0,70,-99.99,,,0.00,weatherlink.com 1.10,2013-07-30 05:14:00,
2013-07-30 00:29:00,74.6,64.0,30.01,South,171,0.0,-999.0,70,-99.99,,,0.00,weatherlink.com 1.10,2013-07-30 05:29:00,
2013-07-30 00:44:00,74.7,64.0,30.02,SSW,192,4.0,-999.0,70,-99.99,,,0.00,weatherlink.com 1.10,2013-07-30 05:44:00,
2013-07-30 00:59:00,74.7,64.0,30.01,South,182,4.0,-999.0,70,-99.99,,,0.00,weatherlink.com 1.10,2013-07-30 05:59:00,
2013-07-30 01:14:00,74.7,64.0,30.01,South,191,0.0,-999.0,70,-99.99,,,0.00,weatherlink.com 1.10,2013-07-30 06:14:00,
2013-07-30 01:29:00,74.8,64.0,30.02,SSW,197,0.0,-999.0,70,-99.99,,,0.00,weatherlink.com 1.10,2013-07-30 06:29:00,
2013-07-30 01:44:00,74.8,64.0,30.01,SSW,196,0.0,-999.0,70,-99.99,,,0.00,weatherlink.com 1.10,2013-07-30 06:44:00,
2013-07-30 01:59:00,74.6,64.0,30.02,South,186,0.0,-999.0,70,-99.99,,,0.00,weatherlink.com 1.10,2013-07-30 06:59:00,
2013-07-30 02:14:00,74.4,64.0,30.01,South,179,0.0,-999.0,70,-99.99,,,0.00,weatherlink.com 1.10,2013-07-30 07:14:00,
2013-07-30 02:29:00,74.2,64.0,30.01,South,182,0.0,-999.0,70,-99.99,,,0.00,weatherlink.com 1.10,2013-07-30 07:29:00,
2013-07-30 02:44:00,73.9,64.0,30.00,South,182,0.0,-999.0,70,-99.99,,,0.00,weatherlink.com 1.10,2013-07-30 07:44:00,
2013-07-30 02:59:00,73.9,64.0,30.00,South,186,0.0,-999.0,70,-99.99,,,0.00,weatherlink.com 1.10,2013-07-30 07:59:00,
2013-07-30 03:14:00,73.8,63.0,30.00,South,185,0.0,-999.0,70,-99.99,,,0.00,weatherlink.com 1.10,2013-07-30 08:14:00,
2013-07-30 03:29:00,73.6,63.0,30.00,South,185,1.0,-999.0,70,-99.99,,,0.00,weatherlink.com 1.10,2013-07-30 08:29:00,
2013-07-30 03:44:00,73.7,64.0,30.00,South,182,0.0,-999.0,71,-99.99,,,0.00,weatherlink.com 1.10,2013-07-30 08:44:00,
2013-07-30 03:59:00,74.0,64.0,30.00,SSW,197,1.0,-999.0,71,-99.99,,,0.00,weatherlink.com 1.10,2013-07-30 08:59:00,
2013-07-30 04:14:00,73.8,63.0,30.00,SSW,199,0.0,-999.0,70,-99.99,,,0.00,weatherlink.com 1.10,2013-07-30 09:14:00,
2013-07-30 04:29:00,73.7,64.0,30.01,SW,236,0.0,-999.0,71,-99.99,,,0.00,weatherlink.com 1.10,2013-07-30 09:29:00,
2013-07-30 04:44:00,73.7,64.0,30.02,SW,219,2.0,-999.0,71,-99.99,,,0.00,weatherlink.com 1.10,2013-07-30 09:44:00,
2013-07-30 04:59:00,73.9,64.0,30.02,SW,224,0.0,-999.0,71,-99.99,,,0.00,weatherlink.com 1.10,2013-07-30 09:59:00,
2013-07-30 05:14:00,73.9,64.0,30.01,WSW,244,4.0,-999.0,71,-99.99,,,0.00,weatherlink.com 1.10,2013-07-30 10:14:00,
2013-07-30 05:29:00,73.9,64.0,30.01,WSW,244,1.0,-999.0,71,-99.99,,,0.00,weatherlink.com 1.10,2013-07-30 10:29:00,
2013-07-30 05:44:00,73.9,64.0,30.01,WSW,248,7.0,-999.0,71,-99.99,,,0.00,weatherlink.com 1.10,2013-07-30 10:44:00,
2013-07-30 05:59:00,73.6,64.0,30.02,West,273,0.0,-999.0,71,-99.99,,,0.00,weatherlink.com 1.10,2013-07-30 10:59:00,
2013-07-30 06:14:00,73.2,63.0,30.01,WSW,247,4.0,-999.0,71,-99.99,,,0.00,weatherlink.com 1.10,2013-07-30 11:14:00,
2013-07-30 06:29:00,73.1,63.0,30.02,WSW,239,0.0,-999.0,70,-99.99,,,0.00,weatherlink.com 1.10,2013-07-30 11:29:00,
2013-07-30 06:44:00,72.9,63.0,30.02,WSW,253,0.0,-999.0,70,-99.99,,,0.00,weatherlink.com 1.10,2013-07-30 11:44:00,
2013-07-30 06:59:00,72.6,62.0,30.02,WNW,290,0.0,-999.0,70,-99.99,,,0.00,weatherlink.com 1.10,2013-07-30 11:59:00,
2013-07-30 07:14:00,72.3,62.0,30.02,West,265,0.0,-999.0,71,-99.99,,,0.00,weatherlink.com 1.10,2013-07-30 12:14:00,
2013-07-30 07:29:00,72.1,62.0,30.02,WSW,257,0.0,-999.0,71,-99.99,,,0.00,weatherlink.com 1.10,2013-07-30 12:29:00,
2013-07-30 07:44:00,72.0,62.0,30.02,WSW,245,0.0,-999.0,70,-99.99,,,0.00,weatherlink.com 1.10,2013-07-30 12:44:00,
2013-07-30 07:59:00,71.9,62.0,30.01,WSW,242,0.0,-999.0,70,-99.99,,,0.00,weatherlink.com 1.10,2013-07-30 12:59:00,
2013-07-30 08:14:00,71.7,63.0,30.02,WSW,247,1.0,-999.0,74,-99.99,,,0.00,weatherlink.com 1.10,2013-07-30 13:14:00,
2013-07-30 08:29:00,71.9,63.0,30.03,WSW,249,0.0,-999.0,74,-99.99,,,0.00,weatherlink.com 1.10,2013-07-30 13:29:00,
2013-07-30 08:44:00,72.2,64.0,30.02,South,188,2.0,-999.0,74,-99.99,,,0.00,weatherlink.com 1.10,2013-07-30 13:44:00,
2013-07-30 08:59:00,72.5,64.0,30.02,WSW,241,0.0,-999.0,74,-99.99,,,0.00,weatherlink.com 1.10,2013-07-30 13:59:00,
2013-07-30 09:14:00,73.0,64.0,30.02,WSW,240,0.0,-999.0,74,-99.99,,,0.00,weatherlink.com 1.10,2013-07-30 14:14:00,
2013-07-30 09:29:00,73.8,65.0,30.03,WSW,252,0.0,-999.0,73,-99.99,,,0.00,weatherlink.com 1.10,2013-07-30 14:29:00,
2013-07-30 09:44:00,73.7,65.0,30.03,West,259,1.0,-999.0,74,-99.99,,,0.00,weatherlink.com 1.10,2013-07-30 14:44:00,
2013-07-30 09:59:00,72.9,64.0,30.01,SW,231,0.0,-999.0,73,-99.99,,,0.00,weatherlink.com 1.10,2013-07-30 14:59:00,
2013-07-30 10:14:00,72.4,63.0,30.00,SW,232,2.0,-999.0,73,-99.99,,,0.00,weatherlink.com 1.10,2013-07-30 15:14:00,
2013-07-30 10:29:00,72.3,63.0,30.01,WSW,246,3.0,-999.0,72,-99.99,,,0.00,weatherlink.com 1.10,2013-07-30 15:29:00,
2013-07-30 10:44:00,72.9,63.0,30.01,WSW,258,12.0,-999.0,70,-99.99,,,0.00,weatherlink.com 1.10,2013-07-30 15:44:00,
2013-07-30 10:59:00,74.3,65.0,30.02,West,281,0.0,-999.0,72,-99.99,,,0.00,weatherlink.com 1.10,2013-07-30 15:59:00,
2013-07-30 11:14:00,74.5,65.0,30.02,West,263,0.0,-999.0,72,-99.99,,,0.00,weatherlink.com 1.10,2013-07-30 16:14:00,
2013-07-30 11:29:00,74.4,65.0,30.01,WSW,247,0.0,-999.0,73,-99.99,,,0.00,weatherlink.com 1.10,2013-07-30 16:29:00,
2013-07-30 11:44:00,73.9,64.0,30.01,SW,227,2.0,-999.0,72,-99.99,,,0.00,weatherlink.com 1.10,2013-07-30 16:44:00,
2013-07-30 11:59:00,73.9,64.0,30.02,WSW,246,0.0,-999.0,71,-99.99,,,0.00,weatherlink.com 1.10,2013-07-30 16:59:00,
2013-07-30 12:14:00,74.5,65.0,30.02,WSW,239,0.0,-999.0,71,-99.99,,,0.00,weatherlink.com 1.10,2013-07-30 17:14:00,
2013-07-30 12:29:00,75.5,66.0,30.02,SW,233,0.0,-999.0,73,-99.99,,,0.00,weatherlink.com 1.10,2013-07-30 17:29:00,
2013-07-30 12:44:00,75.5,66.0,30.03,WSW,246,0.0,-999.0,73,-99.99,,,0.00,weatherlink.com 1.10,2013-07-30 17:44:00,
2013-07-30 12:59:00,76.8,68.0,30.02,West,277,0.0,-999.0,73,-99.99,,,0.00,weatherlink.com 1.10,2013-07-30 17:59:00,
2013-07-30 13:14:00,77.8,69.0,30.02,WSW,250,0.0,-999.0,73,-99.99,,,0.00,weatherlink.com 1.10,2013-07-30 18:14:00,
2013-07-30 13:29:00,79.4,70.0,30.01,WSW,248,0.0,-999.0,72,-99.99,,,0.00,weatherlink.com 1.10,2013-07-30 18:29:00,
2013-07-30 13:44:00,81.1,71.0,30.02,West,267,0.0,-999.0,72,-99.99,,,0.00,weatherlink.com 1.10,2013-07-30 18:44:00,
2013-07-30 13:59:00,81.9,71.0,30.01,WSW,252,0.0,-999.0,69,-99.99,,,0.00,weatherlink.com 1.10,2013-07-30 18:59:00,
2013-07-30 14:14:00,82.3,71.0,30.01,West,273,7.0,-999.0,69,-99.99,,,0.00,weatherlink.com 1.10,2013-07-30 19:14:00,
2013-07-30 14:29:00,82.4,72.0,30.01,SW,229,0.0,-999.0,70,-99.99,,,0.00,weatherlink.com 1.10,2013-07-30 19:29:00,
2013-07-30 14:44:00,81.8,72.0,30.00,SW,234,0.0,-999.0,71,-99.99,,,0.00,weatherlink.com 1.10,2013-07-30 19:44:00,
2013-07-30 14:59:00,80.4,71.0,30.00,SW,235,0.0,-999.0,72,-99.99,,,0.00,weatherlink.com 1.10,2013-07-30 19:59:00,
2013-07-30 15:14:00,79.8,70.0,30.00,WSW,238,0.0,-999.0,73,-99.99,,,0.00,weatherlink.com 1.10,2013-07-30 20:14:00,
2013-07-30 15:29:00,78.9,70.0,30.00,WSW,243,0.0,-999.0,73,-99.99,,,0.00,weatherlink.com 1.10,2013-07-30 20:29:00,
2013-07-30 15:44:00,77.7,68.0,29.98,WSW,240,0.0,-999.0,71,-99.99,,,0.00,weatherlink.com 1.10,2013-07-30 20:44:00,
2013-07-30 15:59:00,76.4,66.0,29.99,SW,225,0.0,-999.0,69,-99.99,,,0.00,weatherlink.com 1.10,2013-07-30 20:59:00,
2013-07-30 16:14:00,76.5,66.0,29.99,SW,223,0.0,-999.0,69,-99.99,,,0.00,weatherlink.com 1.10,2013-07-30 21:14:00,
2013-07-30 16:29:00,77.1,67.0,29.99,SW,229,0.0,-999.0,72,-99.99,,,0.00,weatherlink.com 1.10,2013-07-30 21:29:00,
2013-07-30 16:44:00,77.9,69.0,29.99,WSW,257,0.0,-999.0,73,-99.99,,,0.00,weatherlink.com 1.10,2013-07-30 21:44:00,
2013-07-30 16:59:00,78.0,69.0,29.99,WSW,251,0.0,-999.0,73,-99.99,,,0.00,weatherlink.com 1.10,2013-07-30 21:59:00,
2013-07-30 17:14:00,78.7,69.0,29.99,SW,233,0.0,-999.0,73,-99.99,,,0.00,weatherlink.com 1.10,2013-07-30 22:14:00,
2013-07-30 17:29:00,79.3,70.0,29.98,WSW,240,4.0,-999.0,72,-99.99,,,0.00,weatherlink.com 1.10,2013-07-30 22:29:00,
2013-07-30 17:44:00,79.0,70.0,29.98,SW,227,0.0,-999.0,73,-99.99,,,0.00,weatherlink.com 1.10,2013-07-30 22:44:00,
2013-07-30 17:59:00,79.2,69.0,29.98,SW,223,0.0,-999.0,72,-99.99,,,0.00,weatherlink.com 1.10,2013-07-30 22:59:00,
2013-07-30 18:14:00,79.5,70.0,29.98,West,261,0.0,-999.0,72,-99.99,,,0.00,weatherlink.com 1.10,2013-07-30 23:14:00,
2013-07-30 18:29:00,79.2,69.0,29.98,WSW,257,0.0,-999.0,72,-99.99,,,0.00,weatherlink.com 1.10,2013-07-30 23:29:00,
2013-07-30 18:44:00,78.9,69.0,29.98,WSW,254,1.0,-999.0,72,-99.99,,,0.00,weatherlink.com 1.10,2013-07-30 23:44:00,
2013-07-30 18:59:00,78.5,69.0,29.97,WSW,241,0.0,-999.0,73,-99.99,,,0.00,weatherlink.com 1.10,2013-07-30 23:59:00,
2013-07-30 19:14:00,78.0,68.0,29.97,WSW,238,0.0,-999.0,72,-99.99,,,0.00,weatherlink.com 1.10,2013-07-31 00:14:00,
2013-07-30 19:29:00,77.6,68.0,29.98,SW,236,0.0,-999.0,73,-99.99,,,0.00,weatherlink.com 1.10,2013-07-31 00:29:00,
2013-07-30 19:44:00,77.1,67.0,29.97,SW,228,0.0,-999.0,72,-99.99,,,0.00,weatherlink.com 1.10,2013-07-31 00:44:00,
2013-07-30 19:59:00,76.8,67.0,29.98,SSW,206,0.0,-999.0,72,-99.99,,,0.00,weatherlink.com 1.10,2013-07-31 00:59:00,
2013-07-30 20:14:00,76.6,67.0,29.98,SW,223,0.0,-999.0,72,-99.99,,,0.00,weatherlink.com 1.10,2013-07-31 01:14:00,
2013-07-30 20:29:00,76.4,67.0,29.98,SW,233,0.0,-999.0,72,-99.99,,,0.00,weatherlink.com 1.10,2013-07-31 01:29:00,
2013-07-30 20:44:00,76.2,67.0,29.98,SW,231,3.0,-999.0,72,-99.99,,,0.00,weatherlink.com 1.10,2013-07-31 01:44:00,
2013-07-30 20:59:00,76.1,66.0,29.98,SW,236,0.0,-999.0,72,-99.99,,,0.00,weatherlink.com 1.10,2013-07-31 01:59:00,
2013-07-30 21:14:00,75.9,66.0,29.98,WSW,247,3.0,-999.0,72,-99.99,,,0.00,weatherlink.com 1.10,2013-07-31 02:14:00,
2013-07-30 21:29:00,75.8,66.0,29.98,SW,224,0.0,-999.0,72,-99.99,,,0.00,weatherlink.com 1.10,2013-07-31 02:29:00,
2013-07-30 21:44:00,75.6,66.0,29.98,SW,221,1.0,-999.0,71,-99.99,,,0.00,weatherlink.com 1.10,2013-07-31 02:44:00,
2013-07-30 21:59:00,75.6,66.0,29.99,SW,225,0.0,-999.0,71,-99.99,,,0.00,weatherlink.com 1.10,2013-07-31 02:59:00,
2013-07-30 22:14:00,75.6,66.0,29.99,SW,236,0.0,-999.0,71,-99.99,,,0.00,weatherlink.com 1.10,2013-07-31 03:14:00,
2013-07-30 22:29:00,75.6,66.0,30.00,WSW,245,0.0,-999.0,71,-99.99,,,0.00,weatherlink.com 1.10,2013-07-31 03:29:00,
2013-07-30 22:44:00,75.6,66.0,30.00,SW,235,0.0,-999.0,71,-99.99,,,0.00,weatherlink.com 1.10,2013-07-31 03:44:00,
2013-07-30 22:59:00,75.5,65.0,30.00,SW,229,0.0,-999.0,71,-99.99,,,0.00,weatherlink.com 1.10,2013-07-31 03:59:00,
2013-07-30 23:14:00,75.6,66.0,30.00,SW,230,0.0,-999.0,71,-99.99,,,0.00,weatherlink.com 1.10,2013-07-31 04:14:00,
2013-07-30 23:29:00,75.6,66.0,30.00,WSW,245,5.0,-999.0,71,-99.99,,,0.00,weatherlink.com 1.10,2013-07-31 04:29:00,
2013-07-30 23:44:00,75.6,66.0,30.00,WSW,243,0.0,-999.0,71,-99.99,,,0.00,weatherlink.com 1.10,2013-07-31 04:44:00,
2013-07-30 23:59:00,75.5,65.0,29.99,SW,233,1.0,-999.0,71,-99.99,,,0.00,weatherlink.com 1.10,2013-07-31 04:59:00,